[[{"header":{"parameterUnit":"m.s-1","parameterCategory":1,"la1":30.2991,"la2":30.254,"lo1":-89.0895,"lo2":-89.0444,"dy":0.0017,"dx":0.0017,"nx":28,"ny":28,"refTime":"2024-08-28T03:00:00:Z","depth":0,"parameterNumber":2,"parameterNumberName":"U-component_of_WINDS"},"data":[0,0,0,0,0,0,0,0,0,0,0,0,0,0,0,0,0,0,0,0,0,0,0,0,0,0,0,0,0,0,0,0,0,0,0,0,0,0,0,0,0,0,0,0,0,0,0,0,0,0,0,0,0,0,0,0,0,0,-2.013,-2.0129,0,-2.0058,-2.0057,-2.0056,-1.9967,-1.9966,-1.9964,-1.9963,-1.9892,-1.9891,-1.9891,0,0,0,0,0,0,0,0,0,0,0,0,0,-2.0192,-2.0191,-2.013,-2.0129,-2.0128,-2.0058,-2.0057,-2.0056,-1.9967,-1.9966,-1.9964,-1.9962,-1.9892,-1.9891,-1.9891,0,0,0,0,0,0,0,0,0,0,0,0,0,-2.0147,-2.0191,-2.013,-2.0076,-2.007,-2.0058,-2.0057,-2.0056,-1.9968,-1.9966,-1.9963,-1.9961,-1.9892,-1.9891,-1.9891,-1.9928,0,0,-1.9888,-1.9888,0,0,0,0,0,0,0,0,-2.015,-2.0145,-2.0085,-2.0079,-2.0073,-2.0019,-2.0053,-2.0013,-1.9968,-2.0007,-1.9963,-1.996,-1.9936,-1.9932,-1.9923,-1.9924,-1.9921,-1.9888,-1.9887,-1.9887,-1.9887,0,0,0,0,0,0,0,-2.0153,-2.0147,-2.0102,-2.0084,-2.0077,-2.0055,-2.0046,-2.0045,-1.9984,-2.0003,-1.9996,-1.9989,-1.9933,-1.9924,-1.992,-1.992,-1.9888,-1.9887,-1.9887,-1.9886,-1.9945,-1.9947,0,0,0,0,0,0,-2.0164,-2.0151,-2.0104,-2.0099,-2.0107,-2.0055,-2.0046,-2.0039,-1.9984,-1.9974,-1.9991,-1.9985,-1.9926,-1.9922,-1.9918,-1.9954,-1.9887,-1.9886,-1.9886,-1.9943,-1.9945,-1.9947,0,0,0,0,0,0,-2.0166,-2.0161,-2.0107,-2.0123,-2.0115,-2.0056,-2.005,-2.0038,-2.0029,-1.9975,-1.9964,-1.9993,-1.9924,-1.9919,-1.9925,-1.9951,-1.9886,-1.9885,-1.994,-1.9944,-1.9946,-2.003,0,0,0,0,0,0,-2.0168,-2.0162,-2.0175,-2.0124,-2.0114,-2.0115,-2.0051,-2.0039,-2.0028,-2.002,-1.9974,-1.9964,-1.9922,-1.9926,-1.9924,-1.9948,-1.9884,-1.9938,-1.9942,-1.9945,-2.0025,-2.0036,-2.0045,0,0,0,0,0,-2.017,-2.0204,-2.0177,-2.0171,-2.013,-2.0117,-2.0111,-2.0062,-2.003,-2.0043,-2.0007,-1.9965,-1.9949,-1.9928,-1.9924,-1.9949,-1.9936,-1.9941,-1.9945,-2.002,-2.0034,-2.0045,0,0,0,0,0,0,-2.0261,-2.0196,-2.0165,-2.0183,-2.0156,-2.0102,-2.0117,-2.0078,-2.0061,-2.0054,-1.9994,-1.9984,-1.9997,-1.9974,-1.9952,-1.998,-1.9936,-1.994,-1.9994,-2.0007,-2.0017,-2.0021,-1.9884,0,0,0,0,0,-2.0283,-2.0278,-2.0221,-2.0242,-2.023,-2.0176,-2.0169,-2.0132,-2.0103,-2.0091,-2.0056,-2.0029,-2.0017,-2.0011,-1.9998,-2.0022,-2.0009,-2.0037,-2.0047,-2.0055,-2.0059,-2.0066,-2.0077,-1.9963,-1.9963,-1.9963,0,0,-2.0328,-2.0292,-2.0293,-2.0259,-2.0234,-2.0229,-2.0167,-2.0166,-2.0161,-2.0091,-2.0093,-2.0067,-2.0033,-2.0047,-2.0052,-2.0028,-2.0088,-2.0061,-2.0069,-2.0067,-2.0072,-2.0083,-2.0093,-1.9966,-1.9965,-1.9965,0,0,-2.0408,-2.0381,-2.0394,-2.0369,-2.0331,-2.0294,-2.0298,-2.0249,-2.0228,-2.0229,-2.0175,-2.017,-2.0152,-2.0128,-2.0114,-2.0182,-2.0142,-2.018,-2.0232,-2.024,-2.0249,-2.0257,-2.0278,-2.0287,-2.0184,-2.0184,-2.0184,0,-2.0469,-2.046,-2.0405,-2.0406,-2.0392,-2.0326,-2.0338,-2.0317,-2.0278,-2.0269,-2.0243,-2.0216,-2.0189,-2.0195,-2.0211,-2.0203,-2.0203,-2.0184,-2.0252,-2.0259,-2.0265,-2.0285,-2.0294,-2.0189,-2.0188,-2.0188,-2.0187,0,-2.0535,-2.0529,-2.0544,-2.0505,-2.0492,-2.0499,-2.0445,-2.0439,-2.0404,-2.037,-2.037,-2.0335,-2.0311,-2.0311,-2.0278,-2.0311,-2.0297,-2.0263,-2.0217,-2.0282,-2.0299,-2.0306,-2.0195,-2.0194,-2.0192,-2.0191,0,0,-2.0671,-2.0599,-2.0605,-2.0585,-2.0537,-2.0531,-2.0534,-2.0509,-2.0504,-2.0479,-2.0478,-2.0463,-2.0429,-2.0414,-2.0377,-2.0384,-2.0436,-2.0348,-2.0346,-2.0363,-2.0467,-2.0492,-2.0502,-2.041,-2.0411,-2.0412,-2.0469,0,-2.0739,-2.0739,-2.0689,-2.0702,-2.0694,-2.0631,-2.0633,-2.0603,-2.0571,-2.056,-2.0525,-2.0514,-2.0472,-2.0461,-2.0466,-2.0429,-2.0456,-2.0425,-2.0407,-2.0407,-2.0415,-2.0511,-2.0538,-2.0593,-2.0476,-2.0477,-2.0478,0,-2.082,-2.0796,-2.0808,-2.0756,-2.0751,-2.0754,-2.0725,-2.0716,-2.0681,-2.0656,-2.0637,-2.0594,-2.0592,-2.055,-2.0545,-2.0525,-2.0515,-2.0496,-2.0497,-2.0491,-2.0445,-2.0506,-2.061,-2.0618,-2.0489,-2.0488,-2.0487,0,-2.0913,-2.0885,-2.0887,-2.0872,-2.0813,-2.0816,-2.0792,-2.0754,-2.0741,-2.0717,-2.0708,-2.0684,-2.0671,-2.0654,-2.0605,-2.0579,-2.0605,-2.056,-2.0583,-2.0584,-2.059,-2.059,-2.0692,-2.0588,-2.0588,-2.0588,-2.0588,0,-2.0994,-2.1003,-2.0928,-2.0929,-2.0937,-2.0879,-2.0888,-2.0858,-2.0824,-2.0818,-2.0763,-2.0758,-2.0696,-2.0684,-2.0646,-2.0646,-2.0641,-2.0621,-2.061,-2.0624,-2.0626,-2.0615,-2.0609,-2.059,-2.059,-2.0589,-2.0589,0,-2.11,-2.105,-2.1048,-2.0991,-2.0977,-2.0985,-2.0936,-2.0934,-2.0898,-2.089,-2.0885,-2.0829,-2.0811,-2.0761,-2.0732,-2.0706,-2.0716,-2.0698,-2.0728,-2.072,-2.0746,-2.0743,-2.0842,-2.0851,-2.0745,-2.0746,-2.0747,0,-2.1154,-2.1158,-2.1101,-2.1092,-2.1069,-2.1056,-2.1042,-2.0985,-2.0973,-2.0931,-2.0934,-2.0912,-2.0891,-2.0866,-2.0822,-2.0798,-2.0778,-2.0814,-2.0774,-2.0787,-2.0775,-2.0774,-2.0773,-2.0822,-2.0824,-2.0825,-2.0826,0,-2.1253,-2.1227,-2.1209,-2.1181,-2.1165,-2.114,-2.1113,-2.1109,-2.1045,-2.1033,-2.1013,-2.0997,-2.0965,-2.0943,-2.0912,-2.0887,-2.0845,-2.0839,-2.0843,-2.0856,-2.0871,-2.086,-2.0749,-2.0837,-2.0836,-2.0835,-2.0834,-2.0834,-2.1332,-2.1332,-2.1291,-2.1271,-2.1244,-2.1219,-2.1213,-2.1175,-2.1157,-2.1126,-2.1093,-2.1077,-2.1038,-2.0992,-2.0969,-2.0955,-2.0933,-2.094,-2.0941,-2.0942,-2.0948,-2.0875,-2.095,-2.0949,-2.0949,-2.0948,-2.0948,0,-2.1427,-2.1396,-2.1378,-2.134,-2.1324,-2.1285,-2.1252,-2.1241,-2.1226,-2.1194,-2.1173,-2.1149,-2.1127,-2.108,-2.1053,-2.105,-2.103,-2.1045,-2.1044,-2.1038,-2.097,-2.0968,-2.1061,-2.1061,-2.1061,-2.1061,-2.1061,-2.1061,-2.1474,-2.147,-2.1439,-2.1421,-2.1391,-2.1373,-2.1357,-2.1332,-2.1305,-2.128,-2.1261,-2.123,-2.1191,-2.116,-2.1137,-2.1124,-2.1116,-2.1136,-2.1116,-2.1054,-2.1043,-2.1033,-2.103,-2.1135,-2.1135,-2.1185,-2.1185,-2.1185]},{"header":{"parameterUnit":"m.s-1","parameterCategory":1,"la1":30.2991,"la2":30.254,"lo1":-89.0895,"lo2":-89.0444,"dy":0.0017,"dx":0.0017,"nx":28,"ny":28,"refTime":"2024-08-28T03:00:00:Z","depth":0,"parameterNumber":3,"parameterNumberName":"V-component_of_WINDS"},"data":[0,0,0,0,0,0,0,0,0,0,0,0,0,0,0,0,0,0,0,0,0,0,0,0,0,0,0,0,0,0,0,0,0,0,0,0,0,0,0,0,0,0,0,0,0,0,0,0,0,0,0,0,0,0,0,0,0,0,0.9733,0.9734,0,0.9808,0.9808,0.9809,0.9804,0.9803,0.9802,0.98,0.9879,0.9882,0.9885,0,0,0,0,0,0,0,0,0,0,0,0,0,0.9588,0.959,0.9733,0.9734,0.9735,0.9807,0.9808,0.9809,0.9804,0.9803,0.9801,0.98,0.9878,0.9881,0.9885,0,0,0,0,0,0,0,0,0,0,0,0,0,0.9655,0.9591,0.9733,0.9741,0.9742,0.9807,0.9809,0.981,0.9804,0.9803,0.9801,0.9799,0.9876,0.9881,0.9885,0.9948,0,0,0.99,0.9902,0,0,0,0,0,0,0,0,0.9652,0.9661,0.9739,0.9741,0.9742,0.9795,0.9786,0.9856,0.9805,0.9781,0.98,0.9798,0.9852,0.9859,0.9876,0.9951,0.9955,0.99,0.9903,0.9905,0.9906,0,0,0,0,0,0,0,0.9647,0.9658,0.9763,0.974,0.9742,0.9741,0.9749,0.9799,0.9825,0.9783,0.9783,0.9791,0.9853,0.9872,0.9878,0.9956,0.99,0.9904,0.9907,0.9909,1.0085,1.0087,0,0,0,0,0,0,0.964,0.9654,0.976,0.9765,0.9692,0.9745,0.9754,0.978,0.9824,0.983,0.9793,0.9791,0.9865,0.9873,0.9881,0.9956,0.9905,0.9909,0.9912,1.0083,1.0086,1.0088,0,0,0,0,0,0,0.9637,0.965,0.9757,0.9709,0.9723,0.9749,0.9778,0.9782,0.9801,0.9832,0.9837,0.9807,0.9864,0.9874,0.9931,0.9959,0.9911,0.9916,1.0081,1.0084,1.0087,1.0108,0,0,0,0,0,0,0.9633,0.9649,0.9672,0.971,0.9725,0.9806,0.978,0.9785,0.9809,0.9807,0.9847,0.9852,0.9863,0.9924,0.9936,0.9964,0.9919,1.0079,1.0082,1.0086,1.0105,1.0111,1.0116,0,0,0,0,0,0.9628,0.9676,0.9674,0.9686,0.9756,0.9807,0.9816,0.9828,0.9811,0.9835,0.9855,0.9851,0.9954,0.993,0.9943,0.9974,1.0077,1.0081,1.0085,1.0102,1.011,1.0116,0,0,0,0,0,0,0.9642,0.9681,0.9679,0.9741,0.9771,0.9806,0.9837,0.9836,0.9872,0.9869,0.9882,0.9891,0.9948,0.9966,0.9939,1.0036,1.0013,1.002,1.0021,1.0029,1.0035,1.0029,0.9923,0,0,0,0,0,0.9652,0.969,0.9723,0.9774,0.9789,0.9811,0.9834,0.984,0.9872,0.9885,0.9908,0.994,0.998,1.0005,1.0044,1.0107,1.0116,1.0135,1.0141,1.0145,1.0151,1.0186,1.0194,1.0101,1.0101,1.0101,0,0,0.9674,0.97,0.9723,0.9778,0.9802,0.9841,0.9821,0.9865,0.9894,0.9891,0.9946,0.9964,1.0001,1.0061,1.0089,1.0078,1.0179,1.0151,1.0154,1.0158,1.0191,1.02,1.0207,1.0104,1.0104,1.0103,0,0,0.9733,0.9757,0.9802,0.9826,0.9863,0.9876,0.9887,0.9923,0.9935,0.999,0.9988,1.0024,1.0092,1.0118,1.0139,1.0208,1.0205,1.022,1.025,1.0284,1.0291,1.0298,1.0322,1.033,1.0226,1.0226,1.0226,0,0.9756,0.9815,0.9826,0.9869,0.9893,0.9891,0.9937,0.996,1.0007,1.0024,1.0011,1.0096,1.012,1.0186,1.0202,1.022,1.0233,1.0216,1.0289,1.0296,1.0302,1.0325,1.0334,1.0227,1.0227,1.0227,1.0227,0,0.9841,0.9882,0.9914,0.9959,0.9986,1.0031,1.0048,1.0074,1.0078,1.0093,1.0149,1.0177,1.0221,1.0237,1.0241,1.0303,1.0296,1.0286,1.0264,1.0312,1.0334,1.0343,1.023,1.0229,1.0229,1.0228,0,0,0.9912,0.9961,0.9973,0.9993,1.0032,1.0065,1.0109,1.015,1.0173,1.0205,1.0242,1.0299,1.029,1.0315,1.0322,1.0352,1.0403,1.0338,1.0339,1.0349,1.0472,1.0479,1.0489,1.0401,1.0403,1.0405,1.0469,0,0.9976,1.0053,1.0063,1.0132,1.017,1.0169,1.0207,1.0236,1.0251,1.0285,1.0302,1.0342,1.0328,1.0342,1.0371,1.0391,1.0428,1.0386,1.0436,1.0438,1.0427,1.0501,1.0508,1.0568,1.0478,1.0479,1.048,0,1.006,1.0094,1.0166,1.02,1.0216,1.025,1.0289,1.0322,1.0354,1.0363,1.039,1.0394,1.0439,1.0415,1.0477,1.0449,1.047,1.0482,1.0485,1.049,1.0462,1.0507,1.0587,1.0596,1.0494,1.0493,1.0492,0,1.0104,1.0168,1.0219,1.0237,1.0277,1.0301,1.0319,1.035,1.0374,1.0408,1.0423,1.0463,1.0484,1.0514,1.0528,1.0509,1.0589,1.0566,1.0598,1.0598,1.0615,1.0614,1.0699,1.0629,1.0629,1.0629,1.0629,0,1.0174,1.0218,1.024,1.0271,1.0321,1.0332,1.0381,1.0398,1.0425,1.046,1.0461,1.0494,1.051,1.0545,1.0556,1.0606,1.0616,1.0624,1.0626,1.0624,1.0623,1.0638,1.0634,1.0631,1.0631,1.063,1.063,0,1.0232,1.0248,1.0304,1.0337,1.0347,1.0381,1.041,1.0441,1.0455,1.0499,1.051,1.0533,1.0575,1.0591,1.0642,1.0649,1.0706,1.0706,1.0695,1.0696,1.0726,1.0723,1.0824,1.0838,1.0759,1.076,1.076,0,1.0275,1.0309,1.0346,1.0369,1.0388,1.0425,1.045,1.0462,1.0487,1.0526,1.0552,1.0593,1.0626,1.0692,1.0714,1.0752,1.0752,1.0785,1.0758,1.0754,1.0752,1.075,1.0753,1.079,1.0791,1.0791,1.0792,0,1.0351,1.0357,1.0391,1.0429,1.0458,1.0488,1.0518,1.0537,1.0553,1.0582,1.0624,1.0649,1.0701,1.0741,1.0781,1.08,1.0799,1.08,1.0809,1.0807,1.0799,1.0803,1.0708,1.0798,1.0797,1.0797,1.0796,1.0796,1.0402,1.0432,1.0462,1.0501,1.0524,1.0551,1.0581,1.0599,1.0634,1.0676,1.0682,1.0726,1.0757,1.081,1.083,1.0865,1.0856,1.087,1.0873,1.0877,1.0878,1.0794,1.0872,1.0872,1.0872,1.0872,1.0872,0,1.0477,1.0496,1.0532,1.0573,1.0603,1.0598,1.0631,1.0656,1.0695,1.0724,1.0756,1.0804,1.0843,1.0867,1.0906,1.0929,1.093,1.0939,1.0937,1.0941,1.0884,1.0872,1.0938,1.0938,1.0938,1.0938,1.0938,1.0938,1.052,1.057,1.0579,1.064,1.0659,1.0702,1.0721,1.0746,1.0768,1.0821,1.0854,1.0868,1.0895,1.0936,1.0971,1.0977,1.0991,1.1001,1.1007,1.0953,1.0946,1.0939,1.0928,1.1004,1.1005,1.1061,1.1062,1.1062]}]]